GW2284 Weather Reports


time (UTC)temp
F
wind
direction
speed
knots
gust
knots
rain 1hr
in
rain 24hr
in
rain mn
in
humidity
%
barometer
mb
20260505151604 55 173 0.9 5.2 0.00 0.43 0.28 85 1011.9
20260505124511 54 155 0.0 5.2 0.00 0.43 0.28 85 1012.8
20260505123010 54 182 1.7 3.5 0.00 0.43 0.28 88 1012.7
20260505121510 54 159 1.7 6.1 0.00 0.43 0.28 88 1012.8
20260505120007 53 194 1.7 8.7 0.00 0.43 0.28 89 1012.8
20260505114501 53 238 1.7 7.0 0.00 0.43 0.28 89 1013.0
20260505113001 53 227 1.7 4.3 0.00 0.43 0.28 89 1013.1
20260505111601 53 215 0.9 4.3 0.00 0.43 0.28 89 1013.1
20260505110105 53 211 0.9 4.3 0.00 0.43 0.28 88 1013.2
20260505101517 51 180 0.0 0.9 0.00 0.46 0.28 89 1013.4
20260505100015 51 182 0.9 1.7 0.00 0.46 0.28 90 1013.4
20260505094509 51 182 0.0 1.7 0.00 0.46 0.28 90 1013.4
20260505093005 51 182 0.9 2.6 0.00 0.46 0.28 91 1013.3
20260505091549 50 192 0.9 2.6 0.00 0.46 0.28 91 1013.3
20260505090049 50 208 0.0 0.9 0.00 0.46 0.28 91 1013.3
20260505084600 50 209 0.0 1.7 0.00 0.46 0.28 92 1013.2
20260505083100 50 222 0.9 2.6 0.00 0.46 0.28 92 1013.1
20260505081603 50 225 0.0 1.7 0.00 0.46 0.28 92 1013.0
20260505080053 49 225 1.7 3.5 0.00 0.46 0.28 92 1012.8
20260505074515 49 80 0.0 1.7 0.00 0.46 0.28 92 1012.8
20260505073011 49 80 0.0 1.7 0.00 0.46 0.28 92 1012.8
20260505071517 49 80 0.0 1.7 0.00 0.46 0.28 92 1012.8
20260505070004 48 82 0.0 0.9 0.00 0.46 0.28 92 1012.8
20260505064530 48 82 0.0 1.7 0.00 0.46 0.28 92 1012.8
20260505063035 48 81 0.0 0.9 0.00 0.46 0.28 92 1012.7
20260505061533 48 81 0.0 1.7 0.00 0.46 0.28 92 1012.7
20260505060024 48 98 0.9 1.7 0.00 0.46 0.28 92 1012.9
20260505054524 47 98 0.0 1.7 0.01 0.46 0.28 92 1012.6
20260505053020 48 98 0.9 1.7 0.01 0.46 0.28 92 1012.6
20260505051520 48 98 0.9 3.5 0.01 0.46 0.28 92 1012.6
20260505041504 48 44 0.0 1.7 0.12 0.45 0.28 92 1013.0
20260505040059 48 44 0.0 1.7 0.12 0.43 0.26 92 1013.2
20260505034520 49 44 0.0 0.9 0.13 0.39 0.23 92 1013.4
20260505033025 49 44 0.0 1.7 0.11 0.35 0.19 92 1013.5
20260505031507 49 44 0.0 1.7 0.11 0.33 0.17 92 1013.6
20260505030057 49 44 0.9 1.7 0.10 0.31 0.14 92 1013.6
20260505024548 49 44 0.0 0.9 0.08 0.27 0.10 92 1013.9
20260505023021 49 44 0.0 0.9 0.06 0.24 0.08 92 1014.0
20260505021533 49 44 0.0 1.7 0.03 0.22 0.06 92 1014.0
20260505020058 49 44 0.0 1.7 0.02 0.20 0.04 92 1013.9
20260505014535 49 44 0.0 1.7 0.01 0.19 0.02 92 1013.9
20260505013103 49 44 0.0 1.7 0.01 0.19 0.02 92 1013.9
20260505011558 49 44 0.0 0.9 0.01 0.19 0.02 92 1014.0
20260505010049 49 44 0.9 2.6 0.02 0.19 0.02 92 1014.2
20260505004544 49 44 0.9 2.6 0.01 0.18 0.02 92 1014.6
20260505003035 49 24 0.0 2.6 0.01 0.18 0.02 92 1015.1
20260505001532 49 53 0.0 1.7 0.01 0.18 0.02 92 1015.5
20260505000058 49 53 0.9 2.6 0.00 0.17 0.01 92 1015.6
20260504234548 49 53 0.0 1.7 0.00 0.17 0.01 92 1016.1
20260504233020 49 55 0.9 2.6 0.01 0.17 0.01 92 1016.2
20260504231516 49 55 0.9 3.5 0.01 0.17 0.01 92 1016.3
20260504230010 49 59 0.9 3.5 0.01 0.17 0.01 92 1016.5
20260504224526 49 67 0.9 3.5 0.01 0.17 0.01 92 1016.7
20260504223056 49 68 0.0 2.6 0.00 0.17 0.00 92 1016.6
20260504221553 49 74 1.7 3.5 0.00 0.17 0.00 91 1016.7
20260504214543 49 62 0.9 2.6 0.01 0.17 0.17 91 1017.0
20260504213040 49 49 1.7 3.5 0.01 0.17 0.17 91 1017.2
20260504211539 49 40 0.9 2.6 0.02 0.17 0.17 91 1017.4
20260504210035 49 19 0.0 1.7 0.02 0.16 0.16 91 1017.5
20260504204548 49 19 0.9 2.6 0.02 0.16 0.16 91 1017.5
20260504203033 49 18 0.9 3.5 0.03 0.16 0.16 91 1017.6
20260504201531 49 150 0.0 1.7 0.04 0.15 0.15 90 1017.8
20260504200026 49 150 0.0 2.6 0.05 0.14 0.14 90 1017.5
20260504194524 50 159 0.9 2.6 0.05 0.13 0.13 90 1017.4
20260504193021 50 170 0.0 2.6 0.04 0.13 0.13 89 1017.2
20260504191521 50 257 0.0 1.7 0.02 0.10 0.10 88 1017.0
20260504190019 50 360 0.0 2.6 0.02 0.09 0.09 88 1016.9
20260504184522 51 61 0.9 2.6 0.01 0.09 0.09 88 1016.8
20260504183012 51 61 0.0 2.6 0.02 0.09 0.09 88 1016.6
20260504181510 52 51 1.7 3.5 0.02 0.08 0.08 88 1016.7
20260504180010 53 301 0.0 2.6 0.03 0.08 0.08 87 1016.8
20260504174538 53 301 0.9 1.7 0.05 0.08 0.08 86 1016.9
20260504173038 54 301 0.0 1.7 0.05 0.07 0.07 85 1016.8
20260504171533 54 302 0.0 1.7 0.04 0.06 0.06 83 1016.8